Terminal Aerodrome Forecast
Issued by NWS Glasgow, MT

Home | Current Version | Previous Version | Text Only | Print | Product List | Glossary On
Versions: 1 2 3 4 5 6 7 8 9 10 11 12 13 14 15 16 17 18 19 20 21
000
FTUS45 KGGW 292300
TAFGGW
TAF
KGGW 292326Z 3000/3024 30008KT P6SM SCT250
     FM300300 VRB04KT P6SM SCT250
     FM301800 31009KT P6SM FEW250=

USA.gov is the U.S. government's official web portal to all federal, state and local government web resources and services.